| time (UTC) | temp C | wind direction | speed KPH | gust KPH | rain 1hr cm | rain 24hr cm | rain mn cm | humidity % | barometer mb |
| 20260905183247 | 18 | 170 | 0.0 | 0.0 | 0.00 | 0.10 | 0.00 | 66 | 1041.5 |
| 20260905182746 | 18 | 342 | 3.2 | 3.2 | 0.00 | 0.10 | 0.00 | 65 | 1041.5 |
| 20260905182246 | 18 | 187 | 0.0 | 0.0 | 0.00 | 0.10 | 0.00 | 65 | 1041.6 |
| 20260905181745 | 18 | 26 | 0.0 | 1.6 | 0.00 | 0.10 | 0.00 | 66 | 1041.5 |
| 20260905181215 | 18 | 20 | 1.6 | 1.6 | 0.00 | 0.10 | 0.00 | 65 | 1041.5 |
| 20260905180714 | 18 | 31 | 1.6 | 1.6 | 0.00 | 0.10 | 0.00 | 65 | 1041.6 |
| 20260905180213 | 18 | 82 | 1.6 | 1.6 | 0.00 | 0.10 | 0.00 | 65 | 1041.3 |
| 20260905175713 | 18 | 182 | 0.0 | 0.0 | 0.00 | 0.10 | 0.00 | 65 | 1041.4 |
| 20260905175212 | 18 | 170 | 0.0 | 1.6 | 0.00 | 0.10 | 0.00 | 65 | 1041.1 |
| 20260905174711 | 18 | 156 | 1.6 | 1.6 | 0.00 | 0.10 | 0.00 | 65 | 1041.3 |
| 20260905174211 | 18 | 163 | 0.0 | 0.0 | 0.00 | 0.10 | 0.00 | 64 | 1041.0 |
| 20260905173710 | 18 | 340 | 1.6 | 1.6 | 0.00 | 0.10 | 0.00 | 64 | 1041.2 |
| 20260905173210 | 18 | 142 | 0.0 | 0.0 | 0.00 | 0.10 | 0.00 | 64 | 1041.1 |
| 20260905172709 | 18 | 147 | 0.0 | 0.0 | 0.00 | 0.10 | 0.00 | 65 | 1040.9 |
| 20260905172209 | 18 | 166 | 0.0 | 1.6 | 0.00 | 0.10 | 0.00 | 65 | 1041.2 |
| 20260905171708 | 18 | 164 | 0.0 | 1.6 | 0.00 | 0.10 | 0.00 | 65 | 1041.1 |
| 20260905171207 | 18 | 162 | 0.0 | 0.0 | 0.00 | 0.10 | 0.00 | 65 | 1041.1 |
| 20260905170707 | 18 | 16 | 3.2 | 4.8 | 0.00 | 0.10 | 0.00 | 65 | 1041.1 |
| 20260905170206 | 18 | 153 | 0.0 | 0.0 | 0.00 | 0.10 | 0.00 | 65 | 1041.1 |
| 20260905165706 | 18 | 166 | 0.0 | 1.6 | 0.00 | 0.10 | 0.00 | 65 | 1041.0 |
| 20260905165205 | 18 | 15 | 1.6 | 1.6 | 0.00 | 0.10 | 0.00 | 65 | 1040.8 |
| 20260905164705 | 18 | 327 | 1.6 | 3.2 | 0.00 | 0.10 | 0.00 | 65 | 1040.9 |
| 20260905164204 | 19 | 47 | 1.6 | 1.6 | 0.00 | 0.10 | 0.00 | 65 | 1040.9 |
| 20260905163703 | 19 | 156 | 1.6 | 1.6 | 0.00 | 0.10 | 0.00 | 64 | 1040.7 |
| 20260905163203 | 19 | 177 | 0.0 | 0.0 | 0.00 | 0.10 | 0.00 | 64 | 1040.8 |
| 20260905162702 | 19 | 178 | 0.0 | 0.0 | 0.00 | 0.10 | 0.00 | 64 | 1040.8 |
| 20260905162202 | 19 | 144 | 1.6 | 1.6 | 0.00 | 0.10 | 0.00 | 63 | 1040.5 |
| 20260905161701 | 19 | 76 | 0.0 | 1.6 | 0.00 | 0.10 | 0.00 | 63 | 1040.3 |
| 20260905161201 | 19 | 135 | 0.0 | 0.0 | 0.00 | 0.10 | 0.00 | 63 | 1040.6 |
| 20260905160700 | 19 | 83 | 3.2 | 3.2 | 0.00 | 0.10 | 0.00 | 62 | 1040.5 |
| 20260905160200 | 20 | 181 | 1.6 | 3.2 | 0.00 | 0.10 | 0.00 | 64 | 1040.3 |
| 20260905155659 | 20 | 185 | 0.0 | 0.0 | 0.00 | 0.10 | 0.00 | 62 | 1040.3 |
| 20260905155159 | 20 | 158 | 1.6 | 1.6 | 0.00 | 0.10 | 0.00 | 61 | 1040.4 |
| 20260905154658 | 20 | 193 | 0.0 | 1.6 | 0.00 | 0.10 | 0.00 | 60 | 1040.2 |
| 20260905154158 | 20 | 196 | 0.0 | 1.6 | 0.00 | 0.10 | 0.00 | 59 | 1040.4 |
| 20260905153657 | 20 | 160 | 0.0 | 0.0 | 0.00 | 0.10 | 0.00 | 58 | 1040.3 |
| 20260905153157 | 21 | 29 | 1.6 | 3.2 | 0.00 | 0.10 | 0.00 | 56 | 1040.1 |
| 20260905152656 | 21 | 59 | 1.6 | 3.2 | 0.00 | 0.10 | 0.00 | 56 | 1040.1 |
| 20260905152155 | 21 | 25 | 3.2 | 4.8 | 0.00 | 0.10 | 0.00 | 55 | 1040.1 |
| 20260905151655 | 21 | 98 | 1.6 | 3.2 | 0.00 | 0.10 | 0.00 | 55 | 1040.3 |
| 20260905151154 | 21 | 31 | 1.6 | 3.2 | 0.00 | 0.10 | 0.00 | 54 | 1040.3 |
| 20260905150654 | 21 | 149 | 3.2 | 3.2 | 0.00 | 0.10 | 0.00 | 54 | 1039.8 |
| 20260905150153 | 21 | 152 | 3.2 | 4.8 | 0.00 | 0.10 | 0.00 | 55 | 1040.1 |
| 20260905145652 | 21 | 145 | 3.2 | 3.2 | 0.00 | 0.10 | 0.00 | 56 | 1040.2 |
| 20260905145152 | 21 | 307 | 3.2 | 4.8 | 0.00 | 0.10 | 0.00 | 56 | 1039.9 |
| 20260905144651 | 21 | 143 | 4.8 | 6.4 | 0.00 | 0.10 | 0.00 | 57 | 1040.0 |
| 20260905144151 | 21 | 38 | 3.2 | 4.8 | 0.00 | 0.10 | 0.00 | 57 | 1040.1 |
| 20260905143650 | 21 | 324 | 3.2 | 4.8 | 0.00 | 0.10 | 0.00 | 57 | 1039.9 |
| 20260905143150 | 21 | 321 | 3.2 | 8.0 | 0.00 | 0.10 | 0.00 | 58 | 1040.2 |
| 20260905142649 | 21 | 347 | 6.4 | 12.9 | 0.00 | 0.10 | 0.00 | 58 | 1040.2 |
| 20260905142149 | 21 | 175 | 0.0 | 0.0 | 0.00 | 0.10 | 0.00 | 58 | 1040.0 |
| 20260905141648 | 21 | 307 | 3.2 | 3.2 | 0.00 | 0.10 | 0.00 | 58 | 1040.1 |
| 20260905141147 | 21 | 325 | 4.8 | 6.4 | 0.00 | 0.10 | 0.00 | 59 | 1040.2 |
| 20260905140647 | 21 | 164 | 1.6 | 1.6 | 0.00 | 0.10 | 0.00 | 60 | 1040.5 |
| 20260905140147 | 21 | 193 | 1.6 | 3.2 | 0.00 | 0.10 | 0.00 | 60 | 1040.3 |
| 20260905135646 | 21 | 278 | 3.2 | 3.2 | 0.00 | 0.10 | 0.00 | 60 | 1040.3 |
| 20260905135145 | 21 | 144 | 1.6 | 1.6 | 0.00 | 0.10 | 0.00 | 60 | 1040.5 |
| 20260905134645 | 20 | 142 | 1.6 | 3.2 | 0.00 | 0.10 | 0.00 | 62 | 1040.3 |
| 20260905134144 | 20 | 211 | 4.8 | 9.7 | 0.00 | 0.10 | 0.00 | 62 | 1040.5 |
| 20260905133644 | 20 | 150 | 4.8 | 4.8 | 0.00 | 0.10 | 0.00 | 62 | 1040.5 |
| 20260905133143 | 21 | 60 | 1.6 | 1.6 | 0.00 | 0.10 | 0.00 | 61 | 1040.6 |
| 20260905132642 | 21 | 200 | 1.6 | 1.6 | 0.00 | 0.10 | 0.00 | 61 | 1040.7 |
| 20260905132142 | 21 | 158 | 0.0 | 1.6 | 0.00 | 0.10 | 0.00 | 60 | 1040.6 |
| 20260905131641 | 21 | 152 | 1.6 | 3.2 | 0.00 | 0.10 | 0.00 | 59 | 1040.8 |
| 20260905131141 | 22 | 130 | 0.0 | 1.6 | 0.00 | 0.10 | 0.00 | 58 | 1040.7 |
| 20260905130640 | 22 | 212 | 1.6 | 3.2 | 0.00 | 0.10 | 0.00 | 61 | 1040.8 |
| 20260905130140 | 21 | 327 | 1.6 | 1.6 | 0.00 | 0.10 | 0.00 | 61 | 1040.8 |
| 20260905125639 | 21 | 84 | 1.6 | 3.2 | 0.00 | 0.10 | 0.00 | 61 | 1040.7 |
| 20260905125139 | 21 | 169 | 1.6 | 1.6 | 0.00 | 0.10 | 0.00 | 60 | 1040.8 |
| 20260905124638 | 21 | 147 | 4.8 | 4.8 | 0.00 | 0.10 | 0.00 | 60 | 1041.0 |
| 20260905124138 | 21 | 196 | 1.6 | 3.2 | 0.00 | 0.10 | 0.00 | 60 | 1041.1 |
| 20260905123637 | 21 | 119 | 3.2 | 4.8 | 0.00 | 0.10 | 0.00 | 60 | 1041.0 |
| 20260905123136 | 21 | 339 | 0.0 | 1.6 | 0.00 | 0.10 | 0.00 | 60 | 1041.0 |
| 20260905122636 | 21 | 286 | 4.8 | 9.7 | 0.00 | 0.10 | 0.00 | 60 | 1041.0 |
| 20260905122135 | 21 | 2 | 4.8 | 6.4 | 0.00 | 0.10 | 0.00 | 60 | 1040.9 |
| 20260905121635 | 21 | 116 | 1.6 | 3.2 | 0.00 | 0.10 | 0.00 | 62 | 1040.6 |
| 20260905121134 | 21 | 66 | 4.8 | 6.4 | 0.00 | 0.10 | 0.00 | 61 | 1040.6 |
| 20260905120634 | 21 | 123 | 3.2 | 4.8 | 0.00 | 0.10 | 0.00 | 60 | 1040.7 |
| 20260905120133 | 20 | 183 | 1.6 | 3.2 | 0.00 | 0.10 | 0.00 | 61 | 1040.5 |
| 20260905115633 | 20 | 128 | 4.8 | 6.4 | 0.00 | 0.10 | 0.00 | 60 | 1040.6 |
| 20260905115132 | 21 | 200 | 3.2 | 4.8 | 0.00 | 0.10 | 0.00 | 60 | 1040.7 |
| 20260905114632 | 20 | 151 | 0.0 | 1.6 | 0.00 | 0.10 | 0.00 | 61 | 1040.7 |
| 20260905114131 | 20 | 222 | 1.6 | 3.2 | 0.00 | 0.10 | 0.00 | 61 | 1040.6 |
| 20260905113630 | 20 | 107 | 1.6 | 3.2 | 0.00 | 0.10 | 0.00 | 60 | 1040.6 |
| 20260905113130 | 21 | 304 | 3.2 | 4.8 | 0.00 | 0.10 | 0.00 | 58 | 1040.7 |
| 20260905112629 | 20 | 196 | 0.0 | 1.6 | 0.00 | 0.10 | 0.00 | 61 | 1040.2 |
| 20260905112129 | 20 | 106 | 3.2 | 4.8 | 0.00 | 0.10 | 0.00 | 62 | 1040.3 |
| 20260905111628 | 20 | 100 | 1.6 | 3.2 | 0.00 | 0.10 | 0.00 | 62 | 1040.3 |
| 20260905111128 | 21 | 46 | 3.2 | 4.8 | 0.00 | 0.10 | 0.00 | 63 | 1040.2 |
| 20260905110627 | 21 | 109 | 1.6 | 3.2 | 0.00 | 0.10 | 0.00 | 63 | 1040.3 |
| 20260905110127 | 20 | 170 | 3.2 | 4.8 | 0.00 | 0.10 | 0.00 | 65 | 1040.3 |
| 20260905105626 | 20 | 141 | 1.6 | 3.2 | 0.00 | 0.10 | 0.00 | 64 | 1040.3 |
| 20260905105126 | 20 | 159 | 1.6 | 1.6 | 0.00 | 0.10 | 0.00 | 65 | 1040.1 |
| 20260905104625 | 20 | 196 | 3.2 | 6.4 | 0.00 | 0.10 | 0.00 | 66 | 1040.4 |
| 20260905104125 | 20 | 323 | 1.6 | 1.6 | 0.00 | 0.10 | 0.00 | 64 | 1040.2 |
| 20260905103624 | 20 | 134 | 1.6 | 1.6 | 0.00 | 0.10 | 0.00 | 64 | 1040.1 |
| 20260905103123 | 20 | 149 | 1.6 | 3.2 | 0.00 | 0.10 | 0.00 | 66 | 1040.3 |
| 20260905102623 | 20 | 78 | 4.8 | 4.8 | 0.00 | 0.10 | 0.00 | 65 | 1040.3 |
| 20260905102122 | 19 | 172 | 1.6 | 3.2 | 0.00 | 0.10 | 0.00 | 66 | 1040.3 |
| 20260905101621 | 20 | 329 | 8.0 | 14.5 | 0.00 | 0.10 | 0.00 | 65 | 1040.3 |
| 20260905101121 | 20 | 147 | 1.6 | 3.2 | 0.00 | 0.10 | 0.00 | 68 | 1040.3 |
| 20260905100620 | 18 | 168 | 0.0 | 0.0 | 0.00 | 0.10 | 0.00 | 71 | 1040.1 |
| 20260905100120 | 18 | 167 | 1.6 | 1.6 | 0.00 | 0.10 | 0.00 | 71 | 1040.3 |
| 20260905095619 | 18 | 247 | 1.6 | 1.6 | 0.00 | 0.10 | 0.00 | 72 | 1040.3 |
| 20260905095119 | 18 | 204 | 3.2 | 4.8 | 0.00 | 0.10 | 0.00 | 73 | 1040.3 |
| 20260905094618 | 18 | 36 | 4.8 | 4.8 | 0.00 | 0.10 | 0.00 | 71 | 1040.2 |
| 20260905094118 | 19 | 337 | 1.6 | 3.2 | 0.00 | 0.10 | 0.00 | 68 | 1040.1 |
| 20260905093617 | 20 | 40 | 3.2 | 4.8 | 0.00 | 0.10 | 0.00 | 65 | 1040.0 |
| 20260905093117 | 21 | 250 | 3.2 | 4.8 | 0.00 | 0.10 | 0.00 | 65 | 1039.9 |
| 20260905092616 | 20 | 150 | 4.8 | 6.4 | 0.00 | 0.10 | 0.00 | 67 | 1040.2 |
| 20260905092116 | 20 | 114 | 1.6 | 3.2 | 0.00 | 0.10 | 0.00 | 68 | 1040.0 |
| 20260905091615 | 20 | 169 | 6.4 | 9.7 | 0.00 | 0.10 | 0.00 | 70 | 1040.1 |
| 20260905091114 | 19 | 122 | 4.8 | 6.4 | 0.00 | 0.10 | 0.00 | 71 | 1040.2 |
| 20260905090614 | 19 | 53 | 3.2 | 4.8 | 0.00 | 0.10 | 0.00 | 71 | 1040.3 |
| 20260905090113 | 18 | 128 | 1.6 | 3.2 | 0.00 | 0.10 | 0.00 | 72 | 1040.1 |
| 20260905085613 | 18 | 75 | 4.8 | 9.7 | 0.00 | 0.10 | 0.00 | 72 | 1040.1 |
| 20260905085112 | 18 | 176 | 1.6 | 3.2 | 0.00 | 0.10 | 0.00 | 72 | 1040.0 |
| 20260905084612 | 18 | 206 | 1.6 | 1.6 | 0.00 | 0.10 | 0.00 | 75 | 1040.0 |
| 20260905084111 | 17 | 265 | 1.6 | 4.8 | 0.00 | 0.10 | 0.00 | 77 | 1039.9 |
| 20260905083611 | 17 | 332 | 1.6 | 1.6 | 0.00 | 0.10 | 0.00 | 78 | 1040.0 |
| 20260905083110 | 18 | 185 | 3.2 | 4.8 | 0.00 | 0.10 | 0.00 | 77 | 1039.9 |
| 20260905082610 | 18 | 130 | 3.2 | 3.2 | 0.00 | 0.10 | 0.00 | 76 | 1039.9 |
| 20260905082109 | 18 | 12 | 3.2 | 4.8 | 0.00 | 0.10 | 0.00 | 78 | 1040.0 |
| 20260905081609 | 17 | 147 | 1.6 | 3.2 | 0.00 | 0.10 | 0.00 | 79 | 1040.0 |
| 20260905081108 | 17 | 145 | 4.8 | 4.8 | 0.00 | 0.10 | 0.00 | 79 | 1040.1 |
| 20260905080607 | 17 | 106 | 1.6 | 1.6 | 0.00 | 0.10 | 0.00 | 80 | 1040.0 |
| 20260905080107 | 17 | 95 | 3.2 | 3.2 | 0.00 | 0.10 | 0.00 | 79 | 1040.2 |
| 20260905075606 | 17 | 163 | 4.8 | 9.7 | 0.00 | 0.10 | 0.00 | 80 | 1040.0 |
| 20260905075106 | 17 | 33 | 1.6 | 3.2 | 0.00 | 0.10 | 0.00 | 80 | 1040.0 |
| 20260905074605 | 16 | 232 | 1.6 | 3.2 | 0.00 | 0.10 | 0.00 | 82 | 1040.2 |
| 20260905074105 | 16 | 89 | 1.6 | 3.2 | 0.00 | 0.10 | 0.00 | 83 | 1039.9 |
| 20260905073604 | 16 | 159 | 3.2 | 3.2 | 0.00 | 0.10 | 0.00 | 84 | 1040.1 |
| 20260905073104 | 16 | 338 | 1.6 | 4.8 | 0.00 | 0.10 | 0.00 | 84 | 1040.0 |
| 20260905072603 | 16 | 166 | 1.6 | 3.2 | 0.00 | 0.10 | 0.00 | 84 | 1040.3 |
| 20260905072103 | 15 | 328 | 1.6 | 1.6 | 0.00 | 0.10 | 0.00 | 84 | 1040.1 |
| 20260905071602 | 15 | 210 | 1.6 | 3.2 | 0.00 | 0.10 | 0.00 | 85 | 1039.6 |
| 20260905071102 | 15 | 181 | 1.6 | 3.2 | 0.00 | 0.10 | 0.00 | 85 | 1039.9 |
| 20260905070601 | 15 | 260 | 0.0 | 0.0 | 0.00 | 0.10 | 0.00 | 86 | 1039.8 |
| 20260905070101 | 15 | 187 | 0.0 | 0.0 | 0.00 | 0.10 | 0.00 | 85 | 1039.9 |
| 20260905065600 | 15 | 187 | 0.0 | 0.0 | 0.00 | 0.10 | 0.00 | 85 | 1039.4 |
| 20260905065100 | 15 | 128 | 1.6 | 3.2 | 0.00 | 0.10 | 0.00 | 85 | 1039.5 |
| 20260905064559 | 15 | 157 | 0.0 | 0.0 | 0.00 | 0.10 | 0.00 | 85 | 1039.4 |
| 20260905064059 | 15 | 156 | 0.0 | 1.6 | 0.00 | 0.10 | 0.00 | 85 | 1039.5 |
| 20260905063558 | 15 | 168 | 0.0 | 1.6 | 0.00 | 0.10 | 0.00 | 85 | 1039.6 |
| 20260905063058 | 15 | 134 | 1.6 | 3.2 | 0.00 | 0.10 | 0.00 | 85 | 1039.8 |
| 20260905062557 | 15 | 171 | 0.0 | 0.0 | 0.00 | 0.10 | 0.00 | 85 | 1039.2 |
| 20260905062057 | 15 | 247 | 0.0 | 0.0 | 0.00 | 0.10 | 0.00 | 85 | 1039.2 |
| 20260905061556 | 15 | 153 | 0.0 | 1.6 | 0.00 | 0.10 | 0.00 | 85 | 1038.9 |
| 20260905061056 | 15 | 154 | 0.0 | 1.6 | 0.00 | 0.10 | 0.00 | 85 | 1039.0 |
| 20260905060556 | 15 | 110 | 1.6 | 1.6 | 0.00 | 0.10 | 0.00 | 86 | 1039.0 |
| 20260905060055 | 15 | 140 | 0.0 | 0.0 | 0.00 | 0.10 | 0.00 | 86 | 1039.1 |
| 20260905055554 | 15 | 121 | 1.6 | 4.8 | 0.00 | 0.10 | 0.00 | 86 | 1039.0 |
| 20260905055054 | 15 | 343 | 1.6 | 3.2 | 0.00 | 0.10 | 0.00 | 86 | 1039.0 |
| 20260905054553 | 15 | 165 | 0.0 | 0.0 | 0.00 | 0.10 | 0.00 | 87 | 1038.9 |
| 20260905054053 | 15 | 346 | 1.6 | 1.6 | 0.00 | 0.10 | 0.00 | 87 | 1038.8 |
| 20260905053552 | 15 | 210 | 1.6 | 1.6 | 0.00 | 0.10 | 0.00 | 87 | 1038.9 |
| 20260905053052 | 15 | 212 | 1.6 | 1.6 | 0.00 | 0.10 | 0.00 | 87 | 1038.7 |
| 20260905052551 | 15 | 3 | 1.6 | 3.2 | 0.00 | 0.10 | 0.00 | 87 | 1038.7 |
| 20260905052051 | 15 | 341 | 3.2 | 4.8 | 0.00 | 0.10 | 0.00 | 87 | 1038.5 |
| 20260905051550 | 15 | 290 | 3.2 | 4.8 | 0.00 | 0.10 | 0.00 | 87 | 1038.6 |
| 20260905051050 | 15 | 79 | 3.2 | 3.2 | 0.00 | 0.10 | 0.00 | 88 | 1038.5 |
| 20260905050549 | 14 | 49 | 3.2 | 4.8 | 0.00 | 0.10 | 0.00 | 89 | 1038.5 |
| 20260905050049 | 15 | 137 | 0.0 | 0.0 | 0.13 | 0.10 | 0.00 | 90 | 1038.9 |
| 20260905045548 | 15 | 146 | 0.0 | 1.6 | 0.13 | 0.10 | 0.00 | 90 | 1038.5 |
| 20260905045048 | 15 | 13 | 3.2 | 4.8 | 0.00 | 0.08 | 0.00 | 90 | 1038.3 |
| 20260905044547 | 15 | 103 | 0.0 | 0.0 | 0.00 | 0.08 | 0.00 | 90 | 1038.1 |
| 20260905044047 | 15 | 139 | 0.0 | 0.0 | 0.00 | 0.08 | 0.00 | 90 | 1038.0 |
| 20260905043546 | 15 | 166 | 0.0 | 0.0 | 0.00 | 0.08 | 0.00 | 90 | 1038.2 |
| 20260905043046 | 15 | 152 | 0.0 | 0.0 | 0.00 | 0.08 | 0.00 | 90 | 1037.9 |
| 20260905042545 | 15 | 163 | 1.6 | 1.6 | 0.00 | 0.08 | 0.00 | 90 | 1037.8 |
| 20260905042044 | 15 | 129 | 0.0 | 0.0 | 0.00 | 0.08 | 0.00 | 90 | 1038.1 |
| 20260905041544 | 15 | 135 | 0.0 | 0.0 | 0.00 | 0.08 | 0.00 | 90 | 1037.9 |
| 20260905041043 | 15 | 212 | 3.2 | 4.8 | 0.18 | 0.08 | 0.00 | 90 | 1037.9 |
| 20260905040543 | 15 | 159 | 1.6 | 3.2 | 0.18 | 0.08 | 0.00 | 90 | 1038.1 |
| 20260905040043 | 15 | 112 | 0.0 | 1.6 | 0.00 | 0.05 | 0.00 | 90 | 1037.9 |
| 20260905035542 | 15 | 73 | 1.6 | 3.2 | 0.00 | 0.05 | 0.00 | 89 | 1037.9 |
| 20260905035042 | 16 | 98 | 0.0 | 1.6 | 0.00 | 0.05 | 0.00 | 90 | 1037.7 |
| 20260905034541 | 15 | 172 | 3.2 | 4.8 | 0.00 | 0.05 | 0.00 | 90 | 1037.7 |
| 20260905034040 | 16 | 165 | 3.2 | 4.8 | 0.00 | 0.05 | 0.00 | 90 | 1037.3 |
| 20260905033540 | 16 | 150 | 0.0 | 1.6 | 0.00 | 0.05 | 0.00 | 90 | 1037.3 |
| 20260905033039 | 16 | 114 | 0.0 | 1.6 | 0.00 | 0.05 | 0.00 | 90 | 1037.4 |
| 20260905032539 | 16 | 142 | 3.2 | 4.8 | 0.00 | 0.05 | 0.00 | 89 | 1037.2 |
| 20260905032038 | 16 | 147 | 1.6 | 3.2 | 0.00 | 0.05 | 0.00 | 89 | 1037.0 |
| 20260905031538 | 16 | 152 | 4.8 | 4.8 | 0.00 | 0.05 | 0.00 | 88 | 1037.0 |
| 20260905031037 | 16 | 216 | 3.2 | 3.2 | 0.00 | 0.05 | 0.00 | 88 | 1036.7 |
| 20260905030537 | 16 | 177 | 1.6 | 3.2 | 0.00 | 0.05 | 0.00 | 88 | 1036.9 |
| 20260905030036 | 16 | 198 | 1.6 | 1.6 | 0.00 | 0.05 | 0.00 | 88 | 1036.7 |
| 20260905025536 | 16 | 185 | 1.6 | 1.6 | 0.00 | 0.05 | 0.00 | 88 | 1036.4 |
| 20260905025035 | 16 | 141 | 3.2 | 4.8 | 0.00 | 0.05 | 0.00 | 88 | 1036.6 |
| 20260905024535 | 16 | 184 | 1.6 | 1.6 | 0.00 | 0.05 | 0.00 | 88 | 1036.6 |
| 20260905024034 | 16 | 171 | 1.6 | 1.6 | 0.00 | 0.05 | 0.00 | 88 | 1036.7 |
| 20260905023534 | 16 | 139 | 0.0 | 0.0 | 0.00 | 0.05 | 0.00 | 88 | 1037.1 |
| 20260905023033 | 16 | 140 | 0.0 | 0.0 | 0.00 | 0.05 | 0.00 | 88 | 1036.8 |
| 20260905022533 | 16 | 138 | 3.2 | 3.2 | 0.00 | 0.05 | 0.00 | 88 | 1037.0 |
| 20260905022032 | 16 | 126 | 1.6 | 1.6 | 0.00 | 0.05 | 0.00 | 89 | 1036.8 |
| 20260905021532 | 16 | 140 | 4.8 | 6.4 | 0.00 | 0.05 | 0.00 | 89 | 1037.1 |
| 20260905021031 | 16 | 252 | 0.0 | 0.0 | 0.00 | 0.05 | 0.00 | 90 | 1037.1 |
| 20260905020531 | 16 | 133 | 1.6 | 1.6 | 0.00 | 0.05 | 0.00 | 90 | 1037.2 |
| 20260905020030 | 16 | 135 | 1.6 | 4.8 | 0.00 | 0.05 | 0.00 | 91 | 1037.1 |
| 20260905015530 | 16 | 153 | 1.6 | 3.2 | 0.00 | 0.05 | 0.00 | 91 | 1037.2 |
| 20260905015029 | 16 | 130 | 0.0 | 1.6 | 0.00 | 0.05 | 0.00 | 91 | 1037.2 |
| 20260905014529 | 15 | 131 | 1.6 | 3.2 | 0.00 | 0.05 | 0.00 | 92 | 1037.1 |
| 20260905014028 | 15 | 182 | 3.2 | 3.2 | 0.00 | 0.05 | 0.00 | 92 | 1036.9 |
| 20260905013528 | 15 | 118 | 3.2 | 3.2 | 0.00 | 0.05 | 0.00 | 93 | 1036.6 |
| 20260905013027 | 15 | 296 | 0.0 | 1.6 | 0.00 | 0.05 | 0.00 | 93 | 1036.6 |
| 20260905012527 | 15 | 312 | 3.2 | 3.2 | 0.00 | 0.05 | 0.00 | 93 | 1036.4 |
| 20260905012026 | 15 | 148 | 3.2 | 3.2 | 0.00 | 0.05 | 0.00 | 93 | 1036.5 |
| 20260905011526 | 15 | 174 | 0.0 | 0.0 | 0.00 | 0.05 | 0.00 | 92 | 1036.6 |
| 20260905011025 | 15 | 164 | 3.2 | 4.8 | 0.13 | 0.05 | 0.00 | 92 | 1036.7 |
| 20260905010525 | 16 | 163 | 0.0 | 0.0 | 0.13 | 0.05 | 0.00 | 92 | 1036.8 |
| 20260905010024 | 16 | 162 | 0.0 | 0.0 | 0.00 | 0.03 | 0.00 | 91 | 1036.6 |
| 20260905005524 | 16 | 168 | 0.0 | 0.0 | 0.00 | 0.03 | 0.00 | 91 | 1036.7 |
| 20260905005023 | 16 | 171 | 3.2 | 3.2 | 0.18 | 0.03 | 0.00 | 90 | 1036.6 |
| 20260905004523 | 16 | 138 | 0.0 | 1.6 | 0.18 | 0.03 | 0.00 | 88 | 1036.7 |
| 20260905004022 | 17 | 173 | 0.0 | 0.0 | 0.00 | 0.00 | 0.00 | 86 | 1036.3 |
| 20260905003522 | 17 | 94 | 4.8 | 8.0 | 0.00 | 0.00 | 0.00 | 84 | 1036.4 |
| 20260905003021 | 17 | 37 | 3.2 | 4.8 | 0.00 | 0.00 | 0.00 | 82 | 1036.6 |
| 20260905002521 | 17 | 259 | 1.6 | 3.2 | 0.00 | 0.00 | 0.00 | 81 | 1036.5 |
| 20260905002020 | 17 | 344 | 1.6 | 3.2 | 0.00 | 0.00 | 0.00 | 80 | 1036.1 |
| 20260905001520 | 17 | 296 | 1.6 | 3.2 | 0.00 | 0.00 | 0.00 | 80 | 1036.2 |
| 20260905001019 | 18 | 167 | 0.0 | 1.6 | 0.00 | 0.00 | 0.00 | 79 | 1036.2 |
| 20260905000519 | 18 | 253 | 1.6 | 1.6 | 0.00 | 0.00 | 0.00 | 78 | 1036.3 |
| 20260905000018 | 18 | 178 | 4.8 | 4.8 | 0.00 | 0.00 | 0.00 | 77 | 1036.4 |
| 20260904235518 | 18 | 170 | 1.6 | 3.2 | 0.00 | 0.00 | 0.00 | 76 | 1036.1 |
| 20260904235017 | 18 | 18 | 3.2 | 4.8 | 0.00 | 0.00 | 0.00 | 76 | 1035.7 |
| 20260904234516 | 18 | 195 | 0.0 | 0.0 | 0.00 | 0.00 | 0.00 | 76 | 1035.8 |
| 20260904234016 | 18 | 127 | 0.0 | 0.0 | 0.00 | 0.00 | 0.00 | 75 | 1036.1 |
| 20260904233515 | 18 | 236 | 1.6 | 1.6 | 0.00 | 0.00 | 0.00 | 75 | 1036.3 |
| 20260904233015 | 18 | 333 | 3.2 | 4.8 | 0.00 | 0.00 | 0.00 | 74 | 1036.0 |
| 20260904232514 | 18 | 225 | 3.2 | 4.8 | 0.00 | 0.00 | 0.00 | 73 | 1036.1 |
| 20260904232014 | 19 | 214 | 1.6 | 1.6 | 0.00 | 0.00 | 0.00 | 73 | 1035.7 |
| 20260904231513 | 19 | 211 | 1.6 | 1.6 | 0.00 | 0.00 | 0.00 | 73 | 1035.6 |
| 20260904231013 | 19 | 214 | 4.8 | 6.4 | 0.00 | 0.00 | 0.00 | 73 | 1035.6 |
| 20260904230512 | 19 | 198 | 1.6 | 3.2 | 0.00 | 0.00 | 0.00 | 72 | 1035.8 |
| 20260904230012 | 19 | 131 | 1.6 | 1.6 | 0.00 | 0.00 | 0.00 | 72 | 1035.3 |
| 20260904225511 | 19 | 120 | 4.8 | 6.4 | 0.00 | 0.00 | 0.00 | 72 | 1035.5 |
| 20260904225011 | 19 | 165 | 1.6 | 1.6 | 0.00 | 0.00 | 0.00 | 72 | 1035.5 |
| 20260904224510 | 19 | 195 | 1.6 | 3.2 | 0.00 | 0.00 | 0.00 | 72 | 1035.3 |
| 20260904224010 | 19 | 196 | 0.0 | 0.0 | 0.00 | 0.00 | 0.00 | 73 | 1035.4 |
| 20260904223509 | 20 | 132 | 0.0 | 0.0 | 0.00 | 0.00 | 0.00 | 74 | 1035.1 |
| 20260904223008 | 20 | 88 | 1.6 | 1.6 | 0.00 | 0.00 | 0.00 | 75 | 1035.2 |
| 20260904222508 | 20 | 187 | 0.0 | 0.0 | 0.00 | 0.00 | 0.00 | 75 | 1035.0 |
| 20260904222007 | 20 | 166 | 0.0 | 0.0 | 0.00 | 0.00 | 0.00 | 74 | 1034.7 |
| 20260904221507 | 20 | 230 | 0.0 | 1.6 | 0.00 | 0.00 | 0.00 | 74 | 1034.8 |
| 20260904221006 | 20 | 110 | 0.0 | 1.6 | 0.00 | 0.00 | 0.00 | 73 | 1034.8 |
| 20260904220504 | 21 | 0 | 3.2 | 3.2 | 0.00 | 0.00 | 0.00 | 72 | 1034.7 |
| 20260904220004 | 21 | 303 | 1.6 | 1.6 | 0.00 | 0.00 | 0.00 | 71 | 1034.9 |
| 20260904215503 | 21 | 257 | 4.8 | 6.4 | 0.00 | 0.00 | 0.00 | 70 | 1034.6 |
| 20260904215003 | 22 | 83 | 1.6 | 3.2 | 0.00 | 0.00 | 0.00 | 74 | 1034.4 |
| 20260904214502 | 22 | 212 | 1.6 | 1.6 | 0.00 | 0.00 | 0.00 | 74 | 1034.3 |
| 20260904214002 | 22 | 194 | 0.0 | 0.0 | 0.00 | 0.00 | 0.00 | 73 | 1033.8 |
| 20260904213501 | 22 | 197 | 0.0 | 1.6 | 0.00 | 0.00 | 0.00 | 72 | 1033.9 |
| 20260904213000 | 22 | 102 | 0.0 | 0.0 | 0.00 | 0.00 | 0.00 | 72 | 1034.0 |
| 20260904212500 | 22 | 193 | 1.6 | 1.6 | 0.00 | 0.00 | 0.00 | 70 | 1033.7 |
| 20260904211959 | 23 | 178 | 1.6 | 3.2 | 0.00 | 0.00 | 0.00 | 68 | 1033.6 |
| 20260904211459 | 23 | 181 | 8.0 | 9.7 | 0.00 | 0.00 | 0.00 | 68 | 1032.4 |
| 20260904210958 | 23 | 218 | 3.2 | 4.8 | 0.00 | 0.00 | 0.00 | 68 | 1032.4 |
| 20260904210458 | 23 | 57 | 1.6 | 3.2 | 0.00 | 0.00 | 0.00 | 68 | 1032.6 |
| 20260904205957 | 23 | 219 | 3.2 | 4.8 | 0.00 | 0.00 | 0.00 | 68 | 1032.7 |
| 20260904205456 | 23 | 207 | 1.6 | 3.2 | 0.00 | 0.00 | 0.00 | 68 | 1032.8 |
| 20260904204956 | 23 | 188 | 3.2 | 4.8 | 0.00 | 0.00 | 0.00 | 68 | 1032.7 |
| 20260904204455 | 23 | 172 | 3.2 | 3.2 | 0.00 | 0.00 | 0.00 | 69 | 1032.6 |
| 20260904203955 | 22 | 175 | 1.6 | 4.8 | 0.00 | 0.00 | 0.00 | 69 | 1032.7 |
| 20260904203454 | 22 | 167 | 3.2 | 4.8 | 0.00 | 0.00 | 0.00 | 69 | 1032.4 |
| 20260904202954 | 22 | 162 | 3.2 | 4.8 | 0.00 | 0.00 | 0.00 | 70 | 1032.7 |
| 20260904202453 | 22 | 239 | 3.2 | 6.4 | 0.00 | 0.00 | 0.00 | 70 | 1032.7 |
| 20260904201953 | 22 | 185 | 3.2 | 4.8 | 0.00 | 0.00 | 0.00 | 70 | 1032.8 |
| 20260904201452 | 22 | 119 | 1.6 | 3.2 | 0.00 | 0.00 | 0.00 | 70 | 1032.6 |
| 20260904200951 | 22 | 187 | 1.6 | 1.6 | 0.00 | 0.00 | 0.00 | 70 | 1032.6 |
| 20260904200450 | 22 | 169 | 3.2 | 3.2 | 0.00 | 0.00 | 0.00 | 70 | 1032.6 |
| 20260904195949 | 22 | 166 | 1.6 | 3.2 | 0.00 | 0.00 | 0.00 | 70 | 1032.9 |
| 20260904195448 | 22 | 193 | 1.6 | 3.2 | 0.00 | 0.00 | 0.00 | 70 | 1033.0 |
| 20260904194947 | 23 | 185 | 1.6 | 1.6 | 0.00 | 0.00 | 0.00 | 69 | 1032.9 |
| 20260904194446 | 23 | 162 | 3.2 | 3.2 | 0.00 | 0.00 | 0.00 | 69 | 1033.2 |
| 20260904193945 | 22 | 168 | 4.8 | 6.4 | 0.00 | 0.00 | 0.00 | 69 | 1033.0 |
| 20260904193445 | 23 | 196 | 0.0 | 1.6 | 0.00 | 0.00 | 0.00 | 70 | 1033.2 |
| 20260904192934 | 22 | 200 | 3.2 | 4.8 | 0.00 | 0.00 | 0.00 | 70 | 1033.0 |
| 20260904192433 | 22 | 133 | 3.2 | 6.4 | 0.00 | 0.00 | 0.00 | 70 | 1033.0 |
| 20260904191932 | 22 | 168 | 4.8 | 6.4 | 0.00 | 0.00 | 0.00 | 71 | 1033.0 |
| 20260904191431 | 22 | 186 | 0.0 | 1.6 | 0.00 | 0.00 | 0.00 | 71 | 1033.2 |
| 20260904190931 | 22 | 190 | 1.6 | 3.2 | 0.00 | 0.00 | 0.00 | 71 | 1033.3 |
| 20260904190430 | 23 | 186 | 1.6 | 3.2 | 0.00 | 0.00 | 0.00 | 70 | 1033.3 |
| 20260904185929 | 23 | 174 | 3.2 | 3.2 | 0.00 | 0.00 | 0.00 | 70 | 1033.4 |
| 20260904185429 | 22 | 174 | 4.8 | 6.4 | 0.00 | 0.00 | 0.00 | 71 | 1033.4 |
| 20260904184927 | 22 | 137 | 3.2 | 6.4 | 0.00 | 0.00 | 0.00 | 71 | 1033.3 |
| 20260904184426 | 22 | 163 | 3.2 | 3.2 | 0.00 | 0.00 | 0.00 | 71 | 1033.6 |
| 20260904183925 | 22 | 178 | 1.6 | 1.6 | 0.00 | 0.00 | 0.00 | 71 | 1033.6 |